Weather Roundup
Issued by NWS

Home | Current Version | Previous Version | Text Only | Print | Product List | Glossary On
Versions: 1 2 3 4 5 6 7 8 9 10 11 12 13 14 15 16 17 18 19 20 21 22 23 24 25 26 27 28 29 30 31 32 33 34 35 36 37 38 39 40 41 42 43 44 45 46 47 48 49 50
000
NZUS93 KARX 250810
HRRWXR

CURRENT HOURLY OBSERVATIONS ACROSS
MUCH OF THE UPPER MISSISSIPPI VALLEY
NATIONAL WEATHER SERVICE LA CROSSE WI
300 AM CDT MON JUL 25 2016


...SOUTHEAST MINNESOTA...


CITY           SKY/WX    TMP DP  RH WIND       PRES   REMARKS
ROCHESTER      CLEAR     64  62  93 W6        30.05R
ROCHESTER/MAYO FAIR      67  64  87 W8        30.04R
WINONA         CLEAR     70  63  78 CALM      30.01R
AUSTIN         CLEAR     64  61  88 NW3       30.04S
ALBERT LEA     CLEAR     66  64  94 W3        30.04S
DODGE CENTER   CLEAR     63  61  94 W5        30.04S
PRESTON        CLEAR     64  60  88 W7        30.05R
OWATONNA       CLEAR     63  61  94 CALM      30.04S
FARIBAULT      CLEAR     64  63  94 CALM      30.04S
$$

...ELSEWHERE IN MINNESOTA...


CITY           SKY/WX    TMP DP  RH WIND       PRES   REMARKS
MINNEAPOLIS    CLEAR     71  59  65 W6        30.01R
INTNL FALLS    CLEAR     59  57  93 W3        29.92R
DULUTH         CLEAR     65  60  84 NW12      29.94R
RED WING       CLEAR     64  63  94 CALM      30.00R
REDWOOD FALLS  CLEAR     67  61  81 W6        30.04R
MANKATO        CLEAR     64  61  88 SW7       30.04S
WORTHINGTON    CLEAR     62  60  93 W6        30.08F
FAIRMONT       CLEAR     64  61  88 CALM      30.04S
$$

...SOUTHWEST WISCONSIN...


CITY           SKY/WX    TMP DP  RH WIND       PRES   REMARKS
LA CROSSE      CLEAR     70  64  81 S3        29.99R
PRAIRIE DU CHI PTCLDY    69  65  86 CALM      30.01S
BOSCOBEL       CLOUDY    67  66  97 CALM      30.00F
LONE ROCK      CLOUDY    69  66  90 W5        30.00R
PLATTEVILLE    CLOUDY    68  68 100 CALM      30.01S
FORT MC COY    CLEAR     61  61  99 CALM      30.00F
CAMP DOUGLAS   CLEAR     64  62  94 W6        29.98S
MAUSTON-NEW LI SUNNY     69  64  84 W6        29.98S
VIROQUA        FAIR      65  64  98 SW6       30.02S
WIS DELLS      CLOUDY    68  63  83 W5        29.99S
$$

...ELSEWHERE IN WISCONSIN...


CITY           SKY/WX    TMP DP  RH WIND       PRES   REMARKS
MILWAUKEE      CLOUDY    79  65  62 W6        29.95S
MADISON        CLOUDY    72  66  81 NW3       29.97R
GREEN BAY      PTCLDY    67  66  97 W7        29.92R
EAU CLAIRE     CLEAR     66  63  90 SW5       29.98R
BLACK RVR FLS  FOG       60  60 100 CALM      29.99R VSB 1/2
MEDFORD        CLEAR     63  63 100 W5        29.98R
WAUSAU         CLEAR     66  62  87 CALM      29.95R
WIS RAPIDS     CLEAR     65  61  87 W6        29.98S
MARSHFIELD     CLEAR     63  60  90 W6        29.98R
RICE LAKE      CLEAR     63  60  88 W3        29.99R
$$

...NORTHEAST IOWA...


CITY           SKY/WX    TMP DP  RH WIND       PRES   REMARKS
WATERLOO       CLEAR     65  63  93 CALM      30.03F
DUBUQUE        CLOUDY    70  65  84 N9        30.02S
DECORAH        CLEAR     64  64 100 CALM      30.03S
MASON CITY     CLEAR     64  62  93 W5        30.07R
CHARLES CITY   CLEAR     63  63 100 W3        30.05S
OELWEIN        PTCLDY    64  64 100 W5        30.05F
$$

...ELSEWHERE IN IOWA...


CITY           SKY/WX    TMP DP  RH WIND       PRES   REMARKS
DES MOINES     PTCLDY    72  65  78 N7        30.03F
IOWA CITY      CLOUDY    73  66  78 N7        30.02F
FORT DODGE     CLEAR     66  61  82 CALM      30.07R
MARSHALLTOWN   CLEAR     64  63  96 CALM      30.04F
CEDAR RAPIDS   PTCLDY    69  67  93 N7        30.01F
$$

...NORTHERN ILLINOIS...


CITY           SKY/WX    TMP DP  RH WIND       PRES   REMARKS
CHICAGO-OHARE  CLOUDY    74  67  78 SW9       29.97S
CHICAGO-MIDWAY CLOUDY    75  65  70 SW9       29.96F
MOLINE         CLOUDY    75  66  73 N3        29.99S
ROCKFORD       CLOUDY    75  66  73 CALM      29.99S
PEORIA         CLOUDY    75  72  90 S7        30.01R
$$

NOTE: "FAIR" INDICATES FEW OR NO CLOUDS BELOW 12,000 FEET WITH NO
SIGNIFICANT WEATHER AND/OR OBSTRUCTIONS TO VISIBILITY. WIND
SPEEDS ARE IN MILES-PER-HOUR.




USA.gov is the U.S. government's official web portal to all federal, state and local government web resources and services.